Craig, CO

11:45 AM MST on February 25, 2017 (GMT -0700)
Craig-Moffat

Weather History for KCAG - October, 2012

Change the Weather History Date:

Thursday, October 25, 2012

  Actual Average Record
Temperature  
Mean Temperature 25 °F 40 °F  
Max Temperature 38 °F 56 °F 76 °F (2014)
Min Temperature 12 °F 23 °F 12 °F (2001)
Degree Days  
Heating Degree Days 40 25  
Month to date heating degree days 495 519  
Since 1 July heating degree days 727 884  
Cooling Degree Days 0 0  
Month to date cooling degree days 0 0  
Year to date cooling degree days 344 142  
Moisture  
Dew Point 20 °F    
Average Humidity 72    
Maximum Humidity 92    
Minimum Humidity 52    
Precipitation  
Precipitation 0.17 in 0.04 in 0.53 in (2010)
Month to date precipitation 0.89 1.35  
Year to date precipitation 5.65 13.31  
Sea Level Pressure  
Sea Level Pressure 30.21 in    
Wind  
Wind Speed 5 mph (WSW)    
Max Wind Speed 22 mph    
Max Gust Speed 28 mph    
Visibility 6 miles    
Events Fog , Snow    
T = Trace of Precipitation, MM = Missing Value Source: NWS Daily Summary

Daily Weather History Graph

Daily Weather History Graph

Search for Another Location

Airport or City:

Trip Planner

Search our weather history database for the weather conditions in past years. The results will help you decide how hot, cold, wet, or windy it might be!

Date:

Astronomy

Oct. 25, 2012 Rise Set
Actual Time 7:32 AM MDT 6:14 PM MDT
Civil Twilight 7:04 AM MDT 6:42 PM MDT
Nautical Twilight 6:32 AM MDT 7:14 PM MDT
Astronomical Twilight 6:01 AM MDT 7:46 PM MDT
Moon 4:03 PM MDT 3:31 AM MDT
Length of Visible Light 11h 38m
Length of Day
10h 42m
Waxing Gibbous, 85% of the Moon is Illuminated
Oct 25
Waxing Gibbous
Oct 29
Full
Nov 6
Last Quarter
Nov 13
New
Nov 20
First Quarter

Hourly Weather History & Observations

Time (MDT) Temp. Windchill Dew Point Humidity Pressure Visibility Wind Dir Wind Speed Gust Speed Precip Events Conditions
12:53 AM 26.1 °F 20.5 °F 21.9 °F 84% 30.18 in 10.0 mi WSW 4.6 mph - N/A   Overcast
1:53 AM 23.0 °F - 19.9 °F 88% 30.21 in 10.0 mi Calm Calm - N/A   Mostly Cloudy
2:02 AM 21.2 °F - 19.4 °F 93% 30.11 in 10.0 mi Calm Calm - N/A   Mostly Cloudy
2:13 AM 21.2 °F - 19.4 °F 93% 30.11 in 10.0 mi Calm Calm - N/A   Mostly Cloudy
2:53 AM 19.0 °F - 16.0 °F 88% 30.24 in 10.0 mi Calm Calm - N/A   Clear
3:53 AM 18.0 °F - 15.1 °F 88% 30.25 in 8.0 mi Calm Calm - N/A   Mostly Cloudy
4:32 AM 17.6 °F - 14.0 °F 86% 30.13 in 10.0 mi Calm Calm - N/A   Mostly Cloudy
4:53 AM 18.0 °F - 16.0 °F 92% 30.27 in 10.0 mi Calm Calm - N/A   Overcast
5:53 AM 17.1 °F - 14.0 °F 88% 30.29 in 10.0 mi Calm Calm - N/A   Clear
6:37 AM 15.8 °F - 12.2 °F 86% 30.15 in 10.0 mi Calm Calm - N/A   Scattered Clouds
6:53 AM 16.0 °F - 12.9 °F 88% 30.29 in 10.0 mi Calm Calm - N/A   Partly Cloudy
7:53 AM 12.9 °F - 9.0 °F 84% 30.31 in 10.0 mi Calm Calm - N/A   Partly Cloudy
7:58 AM 14.0 °F - 10.4 °F 86% 30.15 in 1.0 mi Calm Calm - N/A   Scattered Clouds
8:05 AM 15.8 °F - 12.2 °F 86% 30.16 in 0.2 mi Calm Calm - N/A Fog Light Freezing Fog
8:36 AM 15.8 °F - 10.4 °F 79% 30.16 in 0.2 mi Calm Calm - N/A   Haze
8:46 AM 15.8 °F - 10.4 °F 79% 30.17 in 1.5 mi Calm Calm - N/A   Haze
8:51 AM 15.8 °F - 10.4 °F 79% 30.17 in 0.8 mi Calm Calm - N/A   Haze
8:53 AM 17.1 °F - 10.9 °F 77% 30.31 in 0.8 mi Calm Calm - N/A   Haze
9:00 AM 15.8 °F - 10.4 °F 79% 30.17 in 1.8 mi Calm Calm - N/A   Haze
9:07 AM 17.6 °F - 12.2 °F 79% 30.17 in 9.0 mi Calm Calm - N/A   Overcast
9:25 AM 21.2 °F - 17.6 °F 86% 30.17 in 1.5 mi Calm Calm - N/A   Overcast
9:29 AM 23.0 °F - 17.6 °F 80% 30.17 in 0.8 mi Calm Calm - N/A   Haze
9:48 AM 24.8 °F - 17.6 °F 74% 30.17 in 1.2 mi Calm Calm - N/A   Haze
9:51 AM 26.6 °F - 17.6 °F 69% 30.17 in 4.0 mi Calm Calm - N/A   Haze
9:53 AM 26.6 °F - 19.4 °F 74% 30.17 in 7.0 mi Calm Calm - N/A   Scattered Clouds
11:53 AM 30.0 °F - 24.1 °F 79% 30.25 in 10.0 mi Calm Calm - 0.11 in   Partly Cloudy
12:53 PM 34.0 °F 27.2 °F 23.0 °F 64% 30.21 in 10.0 mi East 8.1 mph - 0.01 in   Scattered Clouds
1:53 PM 36.0 °F 31.1 °F 24.1 °F 62% 30.19 in 10.0 mi ENE 5.8 mph - N/A   Partly Cloudy
2:53 PM 37.0 °F 34.5 °F 21.9 °F 54% 30.18 in 10.0 mi SW 3.5 mph - N/A   Overcast
3:49 PM 33.8 °F 22.5 °F 26.6 °F 75% 30.12 in 1.2 mi WSW 19.6 mph - 0.00 in Snow Light Snow
3:51 PM 30.2 °F 17.8 °F 26.6 °F 86% 30.12 in 0.5 mi West 19.6 mph - 0.00 in Snow Snow
3:53 PM 30.0 °F 16.9 °F 26.1 °F 85% 30.26 in 0.2 mi West 21.9 mph 27.6 mph 0.00 in Fog , Snow Heavy Snow
3:56 PM 30.2 °F 18.9 °F 26.6 °F 86% 30.12 in 0.2 mi West 16.1 mph 27.6 mph 0.00 in Fog , Snow Heavy Snow
4:22 PM 28.4 °F 21.2 °F 26.6 °F 93% 30.12 in 0.2 mi WSW 6.9 mph - 0.00 in Fog , Snow Snow
4:34 PM 30.2 °F 24.3 °F 26.6 °F 86% 30.12 in 0.8 mi SSW 5.8 mph - 0.00 in Snow Light Snow
4:36 PM 30.2 °F 23.4 °F 26.6 °F 86% 30.12 in 1.0 mi SSW 6.9 mph - 0.00 in Snow Light Snow
4:38 PM 30.2 °F 23.4 °F 26.6 °F 86% 30.12 in 2.0 mi SSW 6.9 mph - 0.00 in Snow Light Snow
4:45 PM 30.2 °F 25.4 °F 26.6 °F 86% 30.13 in 9.0 mi SSW 4.6 mph - 0.00 in   Overcast
4:51 PM 30.2 °F 26.7 °F 26.6 °F 86% 30.13 in 5.0 mi SW 3.5 mph - 0.00 in Snow Light Snow
4:53 PM 30.0 °F 24.1 °F 26.1 °F 85% 30.27 in 3.0 mi Variable 5.8 mph - 0.00 in Snow Light Snow
4:57 PM 30.2 °F 19.3 °F 26.6 °F 86% 30.13 in 1.2 mi WSW 15.0 mph 21.9 mph 0.00 in Snow Light Snow
4:59 PM 30.2 °F 18.5 °F 26.6 °F 86% 30.13 in 0.8 mi SW 17.3 mph 21.9 mph 0.00 in Snow Light Snow
5:03 PM 30.2 °F 18.5 °F 26.6 °F 86% 30.13 in 0.2 mi SW 17.3 mph 21.9 mph 0.00 in Fog , Snow Heavy Snow
5:05 PM 30.2 °F 18.9 °F 26.6 °F 86% 30.13 in 0.2 mi SW 16.1 mph 21.9 mph 0.00 in Fog , Snow Heavy Snow
5:12 PM 30.2 °F 19.3 °F 26.6 °F 86% 30.13 in 0.5 mi WSW 15.0 mph - 0.00 in Fog , Snow Light Snow
5:16 PM 30.2 °F 18.5 °F 26.6 °F 86% 30.13 in 1.0 mi WSW 17.3 mph - 0.00 in Snow Light Snow
5:19 PM 30.2 °F 18.9 °F 28.4 °F 93% 30.13 in 2.5 mi SW 16.1 mph - 0.00 in Snow Light Snow
5:22 PM 30.2 °F 18.5 °F 26.6 °F 86% 30.13 in 3.0 mi SW 17.3 mph - 0.00 in Snow Light Snow
5:53 PM 30.9 °F 19.4 °F 26.1 °F 82% 30.29 in 7.0 mi WNW 17.3 mph 24.2 mph 0.00 in Snow Light Snow
6:00 PM 30.2 °F 19.8 °F 24.8 °F 80% 30.15 in 9.0 mi WNW 13.8 mph - 0.00 in Snow Light Snow
6:19 PM 30.2 °F 19.3 °F 24.8 °F 80% 30.17 in 10.0 mi NW 15.0 mph 20.7 mph 0.00 in   Overcast
6:53 PM 28.9 °F 21.1 °F 23.0 °F 78% 30.35 in 10.0 mi West 8.1 mph - 0.00 in   Overcast
7:53 PM 28.9 °F 22.8 °F 23.0 °F 78% 30.40 in 10.0 mi WSW 5.8 mph - N/A   Overcast
8:53 PM 28.9 °F 19.8 °F 19.9 °F 69% 30.40 in 10.0 mi West 10.4 mph - N/A   Overcast
9:53 PM 28.9 °F 19.8 °F 21.0 °F 72% 30.38 in 10.0 mi WSW 10.4 mph - N/A   Overcast
10:53 PM 28.9 °F 18.2 °F 19.0 °F 67% 30.40 in 10.0 mi West 13.8 mph - N/A   Overcast
11:53 PM 26.6 °F 17.5 °F 19.4 °F 74% 30.31 in 10.0 mi WSW 9.2 mph - N/A   Scattered Clouds